Orbital Elements at Epoch 2459200.5 (2020-Dec-17.0) TDB
Reference: JPL 34 (heliocentric ecliptic J2000)
Element | Value | Uncertainty (1-sigma) | Units |
e | .1138597357612387 | 3.7076e-08 | |
a | 2.867645615936961 | 1.5099e-08 | au |
q | 2.541136243849504 | 1.0749e-07 | au |
i | 17.68831910951399 | 4.1669e-06 | deg |
node | 119.6835823283647 | 1.2391e-05 | deg |
peri | 255.1069503172055 | 2.2003e-05 | deg |
M | 126.4352653730927 | 1.8292e-05 | deg |
tp | 2458577.551175386529 (2019-Apr-04.05117539) | 8.9503e-05 | TDB |
period | 1773.726469423583 4.86 | 1.4009e-05 3.835e-08 | d yr |
n | .202962523368663 | 1.603e-09 | deg/d |
Q | 3.194154988024418 | 1.6819e-08 | au |
|
| | Orbit Determination Parameters
Additional Information
|